Location: Ravensburg
(47.7866°N, 9.6124°E)
Time: 07:31:33
(UTC+02:00)

METEOR M2 - Pass Details

Date: 21 March 2026
Orbit: 817 x 824 km, 98.5° (Epoch: 15 April)

Event Time Altitude Azimuth Distance (km) Brightness Sun altitude
Rises 03:35:34 0° 26° (NNE) 3,372 ? -27.3°
Reaches altitude 10° 03:38:30 10° 42° (NE) 2,434 ? -26.9°
Maximum altitude 03:42:35 22° 91° (E) 1,754 ? -26.3°
Drops below altitude 10° 03:46:37 10° 140° (SE) 2,418 ? -25.7°
Sets 03:49:30 0° 156° (SSE) 3,344 ? -25.3°
